COSMOS 1375 DEB

Satellite information

Favourite Embed

Satellite Type and Status

DEBRISIN ORBIT

Key statistics

Satellite COSMOS 1375 DEB at a glance.

Uptime

15677

Days in orbit

Revolutions

≈ 14.0

Per day

Orbit

LEO

Low Earth Orbit

Inclination

65.8

Latest

Satellite identification and parameters

Extended collection of information and parameters for COSMOS 1375 DEB.

Object identification

Identified? True

Debris? True

Object name: COSMOS 1375 DEB

International designator: 1982-055AL

Object number (NORAD): 17794

Object ID (CCSDS): 17794

Country: COMMONWEALTH OF INDEPENDENT STATES (CIS)

Current information (Y/N): Y

RCS size: SMALL

Orbital parameters

Period: 102.839 minutes

Inclination: 65.8166 deg

SMA: 7271.062 km

Apoapsis: 920.605 km

Periapsis: 865.248 km

RAAN: 233.2044 deg

Eccentricy: 0.0038067

Argument of periapsis: 171.2379 deg

Mean anomaly: 188.9369 deg

Mean motion: 14.00251397 rev/day

Mean motion (dot): 0.00002207 rev/day2

B* drag term: 0.0015397 1/REarth

Two-line elements (TLE)

Creation date: May 8, 2025, 3:01 a.m.

Reference frame: TEME

Reference center: EARTH

Epoch: May 7, 2025, 2:19 p.m. UTC

TLE line 0: 0 COSMOS 1375 DEB

TLE line 1: 1 17794U 82055AL 25127.59667492 .00002207 00000-0 15397-2 0 9991

TLE line 2: 2 17794 65.8166 233.2044 0038067 171.2379 188.9369 14.00251397995418

Live tracking on map

Real-time ground track for satellite COSMOS 1375 DEB.

In-orbit conjunctions

A list of the most updated potential collisions computed for object COSMOS 1375 DEB.

Target Orbit TCA Probability of collision Miss distance Type
IRS 1B SSO 2024-09-29 21:30:55 0.0001577137 531.0 (m) PAYLOAD
FENGYUN 1C DEB SSO 2024-09-26 15:52:30 0.0004379409 973.0 (m) DEBRIS
GGSE 4 LEO 2024-07-06 23:20:38 0.002308427 172.0 (m) PAYLOAD

Associated space launch

ASAT target satellite

COSMOS 1375 DEB was lifted into orbit during the mission ‘Kosmos-3M | DS-P1-M 16’, on board a Kosmos-3M space rocket.

The launch took place on June 6, 1982, 5:10 p.m. from 132/2.

For more information about the launch, click the button.

Launch to space Kosmos-3M | DS-P1-M 16
Kosmos-3M | DS-P1-M 16

Agency: N/A

Status: Launch Successful

Launch date: June 6, 1982, 5:10 p.m. UTC

Rocket: Kosmos-3M

Launch pad: 132/2

Location: Plesetsk Cosmodrome, Russian Federation

...

Latest news about this satellite

There are no fresh news available about this satellite. Check back as we update our databases every day.


Newsletter sign-up

Weekly statistics, charts and insights to help you stay on top of the space industry.